User: anonymous   Login
Location: Unspecified
(0.0000°N, 0.0000°E)
Time: 15:46:45
(UTC+01:00)
Language:

Centaur D-1AR AC-41 - Orbit

View from above orbital plane
View from above orbital plane
View from above satellite
View from above satellite

Ground track
Ground track

The orbit data is extracted from the following two-line orbital elements,

1 10976U 78068B   17345.88240431 +.00000032 +00000-0 +59906-3 0  9999
2 10976 021.4620 140.0769 7160796 009.0212 144.0220 02.22310247317037
Epoch (UTC): 11 December 2017 21:10:39
Eccentricity: 0.7160796
inclination: 21.4620°
perigee height: 663 km
apogee height: 36178 km
right ascension of ascending node: 140.0769°
argument of perigee: 9.0212°
revolutions per day: 2.22310247
mean anomaly at epoch: 144.0220°
orbit number at epoch: 31703

The dashed part of the orbit path shows where the satellite is in the earth's shadow,  

DLR